Location: hvezdarna zebrak
(49.8744°N, 13.8989°E)
Time: 09:58:48
(UTC+02:00)

ACS3 Solar Sail - Visible Passes

Search period start: 12 June 2026 00:00
Search period end: 22 June 2026 00:00
Orbit: 871 x 959 km, 97.2° (Epoch: 11 June)

Date Brightness Start Highest point End Pass type
(mag) Time Alt. Az. Time Alt. Az. Time Alt. Az.
12 Jun 3.6 00:00:31 10° NE 00:03:50 16° E 00:07:01 10° ESE visible
12 Jun 1.6 01:41:09 10° NNE 01:46:53 87° ESE 01:50:23 25° SSW visible
12 Jun 3.4 03:24:33 10° NNW 03:28:26 19° WNW 03:32:20 10° W visible
13 Jun 3.4 00:07:10 10° NE 00:10:59 18° E 00:14:09 12° ESE visible
13 Jun 1.6 01:48:11 10° N 01:53:54 83° WNW 01:57:31 24° SSW visible
13 Jun 3.6 03:31:48 10° NNW 03:35:20 17° NW 03:38:54 10° W visible
14 Jun 3.3 00:13:54 10° NE 00:18:06 21° E 00:21:16 14° SE visible
14 Jun 1.7 01:55:12 10° N 02:00:54 73° WNW 02:04:38 23° SSW visible
14 Jun 3.7 03:39:04 10° NNW 03:42:13 15° NW 03:45:24 10° W visible
15 Jun 3.1 00:20:40 10° NE 00:25:12 24° E 00:28:22 15° SE visible
15 Jun 1.8 02:02:14 10° N 02:07:53 64° WNW 02:11:44 22° SSW visible
15 Jun 3.8 03:46:24 10° NNW 03:49:05 14° NW 03:51:47 10° W visible
16 Jun 3.0 00:27:28 10° NNE 00:32:17 27° E 00:35:27 17° SE visible
16 Jun 2.0 02:09:15 10° N 02:14:51 57° WNW 02:18:49 20° SW visible
16 Jun 3.8 03:53:50 10° NNW 03:55:56 12° NW 03:58:02 10° WNW visible
17 Jun 2.8 00:34:17 10° NNE 00:39:20 31° E 00:42:31 19° SE visible
17 Jun 2.2 02:16:16 10° N 02:21:47 50° WNW 02:25:53 18° SW visible
17 Jun 3.9 04:01:33 10° NW 04:02:44 11° NW 04:03:57 10° WNW visible
18 Jun 2.6 00:41:07 10° NNE 00:46:22 35° E 00:49:35 21° SE visible
18 Jun 2.4 02:23:17 10° N 02:28:41 44° WNW 02:32:56 17° SW visible
19 Jun 2.4 00:47:58 10° NNE 00:53:22 40° E 00:56:37 22° SSE visible
19 Jun 2.5 02:30:17 10° N 02:35:35 39° WNW 02:39:58 15° SW visible
20 Jun 2.2 00:54:48 10° NNE 01:00:20 45° E 01:03:38 23° SSE visible
20 Jun 2.7 02:37:17 10° N 02:42:27 35° WNW 02:46:59 13° SW visible
21 Jun 2.1 01:01:38 10° NNE 01:07:18 52° E 01:10:38 24° SSE visible
21 Jun 2.9 02:44:18 10° N 02:49:17 31° WNW 02:54:00 12° WSW visible
